| time (UTC) | temp F | wind direction | speed knots | gust knots | rain 1hr in | rain 24hr in | rain mn in | humidity % | barometer mb |
| 20260506222536 | 63 | 214 | 6.1 | 11.3 | 0.00 | 0.00 | 0.00 | 61 | 1007.0 |
| 20260506222036 | 63 | 240 | 4.3 | 8.7 | 0.00 | 0.00 | 0.00 | 61 | 1007.0 |
| 20260506221553 | 63 | 209 | 2.6 | 7.8 | 0.00 | 0.00 | 0.00 | 61 | 1006.9 |
| 20260506221035 | 63 | 302 | 1.7 | 7.0 | 0.00 | 0.00 | 0.00 | 62 | 1006.8 |
| 20260506220536 | 63 | 302 | 2.6 | 7.0 | 0.00 | 0.00 | 0.00 | 62 | 1006.6 |
| 20260506220107 | 63 | 250 | 2.6 | 7.0 | 0.00 | 0.00 | 0.00 | 62 | 1006.6 |
| 20260506215537 | 63 | 220 | 1.7 | 5.2 | 0.00 | 0.00 | 0.00 | 63 | 1006.4 |
| 20260506215037 | 63 | 209 | 1.7 | 6.1 | 0.00 | 0.00 | 0.00 | 63 | 1006.3 |
| 20260506214550 | 63 | 171 | 1.7 | 6.1 | 0.00 | 0.00 | 0.00 | 62 | 1006.1 |
| 20260506214036 | 64 | 161 | 0.9 | 6.1 | 0.00 | 0.00 | 0.00 | 62 | 1005.8 |
| 20260506213536 | 64 | 0 | 0.9 | 5.2 | 0.00 | 0.00 | 0.00 | 62 | 1005.7 |
| 20260506213057 | 64 | 124 | 0.0 | 5.2 | 0.00 | 0.00 | 0.00 | 62 | 1005.5 |
| 20260506212536 | 64 | 146 | 1.7 | 6.1 | 0.00 | 0.00 | 0.00 | 62 | 1005.5 |
| 20260506212036 | 64 | 145 | 1.7 | 6.1 | 0.00 | 0.00 | 0.00 | 61 | 1005.4 |
| 20260506211550 | 64 | 156 | 1.7 | 6.1 | 0.00 | 0.00 | 0.00 | 62 | 1005.3 |
| 20260506211036 | 64 | 165 | 1.7 | 7.0 | 0.00 | 0.00 | 0.00 | 62 | 1005.2 |
| 20260506210538 | 64 | 114 | 1.7 | 8.7 | 0.00 | 0.00 | 0.00 | 61 | 1005.2 |
| 20260506210057 | 64 | 113 | 0.9 | 8.7 | 0.00 | 0.00 | 0.00 | 61 | 1005.1 |
| 20260506205535 | 65 | 116 | 2.6 | 8.7 | 0.00 | 0.00 | 0.00 | 61 | 1005.1 |
| 20260506205035 | 65 | 112 | 1.7 | 9.6 | 0.00 | 0.00 | 0.00 | 61 | 1005.1 |
| 20260506204550 | 65 | 119 | 2.6 | 9.6 | 0.00 | 0.00 | 0.00 | 60 | 1005.1 |
| 20260506204035 | 65 | 142 | 4.3 | 9.6 | 0.00 | 0.00 | 0.00 | 60 | 1005.1 |
| 20260506203535 | 65 | 113 | 2.6 | 9.6 | 0.00 | 0.00 | 0.00 | 60 | 1005.1 |
| 20260506203137 | 65 | 117 | 1.7 | 10.4 | 0.00 | 0.00 | 0.00 | 60 | 1005.0 |
| 20260506202535 | 65 | 126 | 3.5 | 10.4 | 0.00 | 0.00 | 0.00 | 59 | 1005.0 |
| 20260506202035 | 65 | 139 | 3.5 | 10.4 | 0.00 | 0.00 | 0.00 | 59 | 1005.0 |
| 20260506201548 | 66 | 140 | 4.3 | 10.4 | 0.00 | 0.00 | 0.00 | 59 | 1004.9 |
| 20260506201035 | 66 | 119 | 2.6 | 11.3 | 0.00 | 0.00 | 0.00 | 59 | 1004.8 |
| 20260506200537 | 66 | 126 | 3.5 | 11.3 | 0.00 | 0.00 | 0.00 | 58 | 1004.8 |
| 20260506200052 | 66 | 148 | 3.5 | 11.3 | 0.00 | 0.00 | 0.00 | 58 | 1004.9 |
| 20260506195536 | 66 | 117 | 2.6 | 10.4 | 0.00 | 0.00 | 0.00 | 58 | 1004.7 |
| 20260506195036 | 66 | 123 | 4.3 | 10.4 | 0.00 | 0.00 | 0.00 | 58 | 1004.7 |
| 20260506194549 | 66 | 142 | 2.6 | 11.3 | 0.00 | 0.00 | 0.00 | 58 | 1004.7 |
| 20260506194035 | 66 | 123 | 4.3 | 11.3 | 0.00 | 0.00 | 0.00 | 57 | 1004.5 |
| 20260506193534 | 66 | 127 | 5.2 | 13.0 | 0.00 | 0.00 | 0.00 | 57 | 1004.5 |
| 20260506193047 | 67 | 119 | 4.3 | 13.0 | 0.00 | 0.00 | 0.00 | 57 | 1004.5 |
| 20260506192534 | 67 | 159 | 3.5 | 10.4 | 0.00 | 0.00 | 0.00 | 57 | 1004.5 |
| 20260506192034 | 67 | 117 | 3.5 | 13.0 | 0.00 | 0.00 | 0.00 | 57 | 1004.4 |
| 20260506191551 | 67 | 144 | 3.5 | 13.0 | 0.00 | 0.00 | 0.00 | 56 | 1004.4 |
| 20260506191035 | 67 | 118 | 4.3 | 13.9 | 0.00 | 0.00 | 0.00 | 56 | 1004.4 |
| 20260506190535 | 67 | 127 | 4.3 | 13.9 | 0.00 | 0.00 | 0.00 | 56 | 1004.2 |
| 20260506190050 | 67 | 135 | 4.3 | 13.9 | 0.00 | 0.00 | 0.00 | 56 | 1004.0 |
| 20260506185534 | 67 | 178 | 5.2 | 13.9 | 0.00 | 0.00 | 0.00 | 55 | 1004.0 |
| 20260506185034 | 68 | 115 | 5.2 | 13.9 | 0.00 | 0.00 | 0.00 | 55 | 1004.0 |
| 20260506184559 | 68 | 148 | 5.2 | 13.9 | 0.00 | 0.00 | 0.00 | 55 | 1004.0 |
| 20260506184034 | 68 | 134 | 5.2 | 13.9 | 0.00 | 0.00 | 0.00 | 54 | 1004.0 |
| 20260506183534 | 68 | 121 | 5.2 | 13.9 | 0.00 | 0.00 | 0.00 | 54 | 1003.9 |
| 20260506183053 | 68 | 154 | 4.3 | 11.3 | 0.00 | 0.00 | 0.00 | 54 | 1003.9 |
| 20260506182534 | 68 | 135 | 3.5 | 13.0 | 0.00 | 0.00 | 0.00 | 54 | 1003.8 |
| 20260506182034 | 69 | 80 | 5.2 | 13.0 | 0.00 | 0.00 | 0.00 | 53 | 1003.8 |
| 20260506181545 | 69 | 123 | 4.3 | 13.0 | 0.00 | 0.00 | 0.00 | 53 | 1003.7 |
| 20260506181037 | 69 | 131 | 3.5 | 10.4 | 0.00 | 0.00 | 0.00 | 53 | 1003.7 |
| 20260506180533 | 69 | 141 | 3.5 | 11.3 | 0.00 | 0.00 | 0.00 | 52 | 1003.6 |
| 20260506180048 | 69 | 154 | 4.3 | 11.3 | 0.00 | 0.00 | 0.00 | 52 | 1003.5 |
| 20260506175533 | 70 | 139 | 4.3 | 10.4 | 0.00 | 0.00 | 0.00 | 51 | 1003.5 |
| 20260506175034 | 70 | 165 | 4.3 | 11.3 | 0.00 | 0.00 | 0.00 | 51 | 1003.6 |
| 20260506174606 | 70 | 133 | 4.3 | 11.3 | 0.00 | 0.00 | 0.00 | 51 | 1003.5 |
| 20260506174035 | 70 | 123 | 4.3 | 13.0 | 0.00 | 0.00 | 0.00 | 50 | 1003.5 |
| 20260506173536 | 71 | 124 | 4.3 | 13.0 | 0.00 | 0.00 | 0.00 | 50 | 1003.5 |
| 20260506173054 | 71 | 137 | 6.1 | 13.9 | 0.00 | 0.00 | 0.00 | 50 | 1003.5 |
| 20260506172536 | 71 | 156 | 4.3 | 14.8 | 0.00 | 0.00 | 0.00 | 50 | 1003.5 |
| 20260506172039 | 71 | 168 | 6.1 | 14.8 | 0.00 | 0.00 | 0.00 | 50 | 1003.6 |
| 20260506171550 | 72 | 164 | 5.2 | 14.8 | 0.00 | 0.00 | 0.00 | 49 | 1003.5 |
| 20260506171036 | 72 | 158 | 4.3 | 18.2 | 0.00 | 0.00 | 0.00 | 49 | 1003.5 |
| 20260506170535 | 72 | 156 | 7.0 | 22.6 | 0.00 | 0.00 | 0.00 | 48 | 1003.5 |
| 20260506170053 | 73 | 144 | 4.3 | 22.6 | 0.00 | 0.00 | 0.00 | 48 | 1003.6 |
| 20260506165537 | 73 | 143 | 5.2 | 12.2 | 0.00 | 0.00 | 0.00 | 47 | 1003.5 |
| 20260506165036 | 73 | 123 | 3.5 | 13.9 | 0.00 | 0.00 | 0.00 | 47 | 1003.4 |
| 20260506164552 | 74 | 360 | 5.2 | 13.9 | 0.00 | 0.00 | 0.00 | 45 | 1003.5 |
| 20260506164036 | 74 | 156 | 5.2 | 16.5 | 0.00 | 0.00 | 0.00 | 45 | 1003.6 |
| 20260506163536 | 74 | 148 | 5.2 | 18.2 | 0.00 | 0.00 | 0.00 | 45 | 1003.6 |
| 20260506163102 | 74 | 142 | 6.1 | 18.2 | 0.00 | 0.00 | 0.00 | 45 | 1003.6 |
| 20260506162536 | 74 | 360 | 6.1 | 20.0 | 0.00 | 0.00 | 0.00 | 45 | 1003.6 |
| 20260506162037 | 75 | 157 | 8.7 | 20.0 | 0.00 | 0.00 | 0.00 | 45 | 1003.7 |
| 20260506161547 | 75 | 123 | 7.8 | 19.1 | 0.00 | 0.00 | 0.00 | 44 | 1003.7 |
| 20260506161039 | 75 | 125 | 6.1 | 18.2 | 0.00 | 0.00 | 0.00 | 46 | 1003.7 |
| 20260506160536 | 75 | 112 | 6.1 | 15.6 | 0.00 | 0.00 | 0.00 | 46 | 1003.9 |
| 20260506160050 | 75 | 120 | 6.1 | 16.5 | 0.00 | 0.00 | 0.00 | 45 | 1003.9 |
| 20260506155536 | 75 | 190 | 7.0 | 16.5 | 0.00 | 0.00 | 0.00 | 46 | 1003.8 |
| 20260506155038 | 75 | 103 | 7.0 | 19.1 | 0.00 | 0.00 | 0.00 | 45 | 1003.8 |
| 20260506154552 | 75 | 110 | 5.2 | 19.1 | 0.00 | 0.00 | 0.00 | 46 | 1003.7 |
| 20260506154039 | 75 | 155 | 8.7 | 19.1 | 0.00 | 0.00 | 0.00 | 45 | 1003.7 |
| 20260506153535 | 75 | 153 | 5.2 | 15.6 | 0.00 | 0.00 | 0.00 | 45 | 1003.8 |
| 20260506153109 | 76 | 138 | 7.8 | 18.2 | 0.00 | 0.00 | 0.00 | 44 | 1003.8 |
| 20260506152537 | 76 | 155 | 5.2 | 18.2 | 0.00 | 0.00 | 0.00 | 44 | 1003.9 |
| 20260506152036 | 75 | 138 | 7.8 | 17.4 | 0.00 | 0.00 | 0.00 | 43 | 1003.9 |
| 20260506151546 | 76 | 157 | 4.3 | 18.2 | 0.00 | 0.00 | 0.00 | 43 | 1003.8 |
| 20260506151035 | 76 | 125 | 7.0 | 18.2 | 0.00 | 0.00 | 0.00 | 42 | 1003.8 |
| 20260506150536 | 76 | 150 | 8.7 | 19.1 | 0.00 | 0.00 | 0.00 | 42 | 1003.8 |
| 20260506150048 | 76 | 99 | 7.8 | 25.2 | 0.00 | 0.00 | 0.00 | 42 | 1003.8 |
| 20260506145535 | 76 | 103 | 9.6 | 25.2 | 0.00 | 0.00 | 0.00 | 41 | 1003.8 |
| 20260506145036 | 76 | 133 | 9.6 | 25.2 | 0.00 | 0.00 | 0.00 | 41 | 1003.9 |
| 20260506144547 | 76 | 132 | 6.1 | 20.9 | 0.00 | 0.00 | 0.00 | 42 | 1003.7 |
| 20260506144035 | 76 | 132 | 7.0 | 20.9 | 0.00 | 0.00 | 0.00 | 42 | 1003.9 |
| 20260506143535 | 76 | 144 | 9.6 | 22.6 | 0.00 | 0.00 | 0.00 | 40 | 1003.8 |
| 20260506143045 | 77 | 127 | 5.2 | 22.6 | 0.00 | 0.00 | 0.00 | 40 | 1003.8 |
| 20260506142538 | 77 | 155 | 7.0 | 20.9 | 0.00 | 0.00 | 0.00 | 39 | 1003.8 |
| 20260506142035 | 78 | 128 | 7.8 | 20.9 | 0.00 | 0.00 | 0.00 | 38 | 1003.9 |
| 20260506141549 | 78 | 96 | 7.8 | 20.0 | 0.00 | 0.00 | 0.00 | 38 | 1003.9 |
| 20260506141035 | 79 | 112 | 4.3 | 19.1 | 0.00 | 0.00 | 0.00 | 38 | 1003.9 |
| 20260506140539 | 79 | 123 | 4.3 | 20.9 | 0.00 | 0.00 | 0.00 | 39 | 1003.9 |
| 20260506140051 | 78 | 116 | 7.8 | 20.0 | 0.00 | 0.00 | 0.00 | 39 | 1003.9 |
| 20260506135536 | 78 | 102 | 8.7 | 20.0 | 0.00 | 0.00 | 0.00 | 39 | 1004.0 |
| 20260506135035 | 79 | 147 | 7.8 | 20.0 | 0.00 | 0.00 | 0.00 | 38 | 1004.0 |
| 20260506134547 | 78 | 167 | 7.8 | 20.0 | 0.00 | 0.00 | 0.00 | 39 | 1004.0 |
| 20260506134036 | 79 | 104 | 7.8 | 18.2 | 0.00 | 0.00 | 0.00 | 38 | 1004.2 |
| 20260506133536 | 78 | 163 | 6.1 | 18.2 | 0.00 | 0.00 | 0.00 | 38 | 1004.2 |
| 20260506133050 | 79 | 153 | 6.1 | 19.1 | 0.00 | 0.00 | 0.00 | 37 | 1004.1 |
| 20260506132535 | 80 | 130 | 4.3 | 19.1 | 0.00 | 0.00 | 0.00 | 37 | 1004.3 |
| 20260506132035 | 79 | 122 | 6.1 | 18.2 | 0.00 | 0.00 | 0.00 | 37 | 1004.3 |
| 20260506131546 | 78 | 115 | 7.0 | 18.2 | 0.00 | 0.00 | 0.00 | 38 | 1004.5 |
| 20260506131035 | 77 | 163 | 4.3 | 17.4 | 0.00 | 0.00 | 0.00 | 41 | 1004.5 |
| 20260506130536 | 76 | 99 | 6.1 | 20.0 | 0.00 | 0.00 | 0.00 | 41 | 1004.5 |
| 20260506130047 | 76 | 116 | 9.6 | 20.0 | 0.00 | 0.00 | 0.00 | 39 | 1004.6 |
| 20260506125536 | 76 | 157 | 7.0 | 19.1 | 0.00 | 0.00 | 0.00 | 39 | 1004.9 |
| 20260506125036 | 76 | 98 | 6.1 | 16.5 | 0.00 | 0.00 | 0.00 | 39 | 1004.9 |
| 20260506124547 | 77 | 129 | 2.6 | 11.3 | 0.00 | 0.00 | 0.00 | 40 | 1004.9 |
| 20260506124036 | 76 | 150 | 3.5 | 14.8 | 0.00 | 0.00 | 0.00 | 40 | 1004.9 |
| 20260506123536 | 76 | 108 | 5.2 | 16.5 | 0.00 | 0.00 | 0.00 | 39 | 1005.0 |
| 20260506123050 | 76 | 164 | 6.1 | 16.5 | 0.00 | 0.00 | 0.00 | 39 | 1005.0 |
| 20260506122535 | 76 | 140 | 5.2 | 14.8 | 0.00 | 0.00 | 0.00 | 40 | 1005.2 |
| 20260506122035 | 76 | 122 | 4.3 | 14.8 | 0.00 | 0.00 | 0.00 | 39 | 1005.2 |
| 20260506121602 | 76 | 92 | 6.1 | 14.8 | 0.00 | 0.00 | 0.00 | 39 | 1005.4 |
| 20260506121036 | 76 | 116 | 4.3 | 12.2 | 0.00 | 0.00 | 0.00 | 40 | 1005.3 |
| 20260506120536 | 76 | 143 | 4.3 | 13.9 | 0.00 | 0.00 | 0.00 | 39 | 1005.4 |
| 20260506120048 | 76 | 94 | 5.2 | 13.9 | 0.00 | 0.00 | 0.00 | 39 | 1005.5 |
| 20260506115534 | 75 | 134 | 7.0 | 13.9 | 0.00 | 0.00 | 0.00 | 40 | 1005.6 |
| 20260506115035 | 75 | 90 | 3.5 | 12.2 | 0.00 | 0.00 | 0.00 | 43 | 1005.6 |
| 20260506114546 | 75 | 121 | 5.2 | 12.2 | 0.00 | 0.00 | 0.00 | 44 | 1005.7 |
| 20260506114036 | 75 | 130 | 7.0 | 12.2 | 0.00 | 0.00 | 0.00 | 43 | 1005.7 |
| 20260506113534 | 76 | 145 | 6.1 | 19.1 | 0.00 | 0.00 | 0.00 | 43 | 1005.7 |
| 20260506113045 | 75 | 82 | 6.1 | 19.1 | 0.00 | 0.00 | 0.00 | 43 | 1005.9 |
| 20260506112537 | 76 | 112 | 6.1 | 19.1 | 0.00 | 0.00 | 0.00 | 42 | 1006.1 |
| 20260506112038 | 77 | 95 | 5.2 | 17.4 | 0.00 | 0.00 | 0.00 | 43 | 1006.1 |
| 20260506111543 | 76 | 179 | 5.2 | 17.4 | 0.00 | 0.00 | 0.00 | 44 | 1006.0 |
| 20260506111036 | 76 | 126 | 6.1 | 12.2 | 0.00 | 0.00 | 0.00 | 42 | 1006.1 |
| 20260506110539 | 77 | 165 | 2.6 | 13.9 | 0.00 | 0.00 | 0.00 | 44 | 1006.2 |
| 20260506110056 | 76 | 137 | 3.5 | 15.6 | 0.00 | 0.00 | 0.00 | 46 | 1006.4 |
| 20260506105536 | 76 | 118 | 6.1 | 15.6 | 0.00 | 0.00 | 0.00 | 45 | 1006.6 |
| 20260506105036 | 76 | 123 | 6.1 | 15.6 | 0.00 | 0.00 | 0.00 | 45 | 1006.5 |
| 20260506104549 | 75 | 137 | 6.1 | 17.4 | 0.00 | 0.00 | 0.00 | 44 | 1006.6 |
| 20260506104035 | 75 | 104 | 6.1 | 17.4 | 0.00 | 0.00 | 0.00 | 45 | 1007.0 |
| 20260506103537 | 75 | 161 | 5.2 | 15.6 | 0.00 | 0.00 | 0.00 | 45 | 1007.0 |
| 20260506103047 | 76 | 65 | 5.2 | 15.6 | 0.00 | 0.00 | 0.00 | 44 | 1007.2 |
| 20260506102536 | 75 | 131 | 6.1 | 14.8 | 0.00 | 0.00 | 0.00 | 44 | 1007.1 |
| 20260506102039 | 75 | 178 | 7.0 | 14.8 | 0.00 | 0.00 | 0.00 | 44 | 1007.2 |
| 20260506101613 | 74 | 148 | 6.1 | 16.5 | 0.00 | 0.00 | 0.00 | 45 | 1007.3 |
| 20260506101034 | 74 | 86 | 6.1 | 16.5 | 0.00 | 0.00 | 0.00 | 44 | 1007.3 |
| 20260506100535 | 74 | 93 | 5.2 | 16.5 | 0.00 | 0.00 | 0.00 | 45 | 1007.4 |
| 20260506100051 | 75 | 111 | 6.1 | 14.8 | 0.00 | 0.00 | 0.00 | 44 | 1007.6 |
| 20260506095536 | 75 | 136 | 5.2 | 14.8 | 0.00 | 0.00 | 0.00 | 43 | 1007.6 |
| 20260506095036 | 75 | 127 | 4.3 | 14.8 | 0.00 | 0.00 | 0.00 | 45 | 1007.5 |
| 20260506094553 | 75 | 117 | 2.6 | 10.4 | 0.00 | 0.00 | 0.00 | 47 | 1007.6 |
| 20260506094036 | 75 | 110 | 4.3 | 13.9 | 0.00 | 0.00 | 0.00 | 45 | 1007.6 |
| 20260506093537 | 75 | 115 | 4.3 | 13.9 | 0.00 | 0.00 | 0.00 | 44 | 1007.6 |
| 20260506093046 | 76 | 139 | 2.6 | 9.6 | 0.00 | 0.00 | 0.00 | 43 | 1007.6 |
| 20260506092536 | 76 | 117 | 2.6 | 11.3 | 0.00 | 0.00 | 0.00 | 43 | 1007.7 |
| 20260506092036 | 75 | 153 | 2.6 | 11.3 | 0.00 | 0.00 | 0.00 | 44 | 1007.8 |
| 20260506091548 | 74 | 110 | 1.7 | 9.6 | 0.00 | 0.00 | 0.00 | 46 | 1007.8 |
| 20260506091039 | 74 | 136 | 4.3 | 10.4 | 0.00 | 0.00 | 0.00 | 46 | 1007.7 |
| 20260506090536 | 74 | 124 | 3.5 | 10.4 | 0.00 | 0.00 | 0.00 | 47 | 1007.9 |
| 20260506090100 | 74 | 98 | 1.7 | 7.0 | 0.00 | 0.00 | 0.00 | 47 | 1007.7 |
| 20260506085535 | 74 | 96 | 1.7 | 8.7 | 0.00 | 0.00 | 0.00 | 47 | 1007.8 |
| 20260506085035 | 72 | 0 | 2.6 | 8.7 | 0.00 | 0.00 | 0.00 | 49 | 1007.6 |
| 20260506084552 | 73 | 78 | 5.2 | 8.7 | 0.00 | 0.00 | 0.00 | 47 | 1007.7 |
| 20260506084037 | 73 | 103 | 1.7 | 7.8 | 0.00 | 0.00 | 0.00 | 48 | 1007.8 |
| 20260506083540 | 73 | 90 | 1.7 | 7.8 | 0.00 | 0.00 | 0.00 | 49 | 1007.8 |
| 20260506083046 | 72 | 111 | 2.6 | 7.0 | 0.00 | 0.00 | 0.00 | 47 | 1007.8 |
| 20260506082540 | 72 | 0 | 0.9 | 7.0 | 0.00 | 0.00 | 0.00 | 49 | 1007.8 |
| 20260506082036 | 72 | 139 | 1.7 | 7.8 | 0.00 | 0.00 | 0.00 | 50 | 1007.7 |
| 20260506081544 | 71 | 101 | 1.7 | 7.8 | 0.00 | 0.00 | 0.00 | 51 | 1007.9 |
| 20260506081036 | 72 | 90 | 2.6 | 7.0 | 0.00 | 0.00 | 0.00 | 50 | 1007.9 |
| 20260506080536 | 72 | 0 | 1.7 | 6.1 | 0.00 | 0.00 | 0.00 | 51 | 1007.9 |
| 20260506073048 | 69 | 112 | 0.0 | 3.5 | 0.00 | 0.00 | 0.00 | 51 | 1008.1 |
| 20260506072537 | 69 | 34 | 0.9 | 3.5 | 0.00 | 0.00 | 0.00 | 49 | 1008.0 |
| 20260506072037 | 69 | 103 | 0.9 | 3.5 | 0.00 | 0.00 | 0.00 | 50 | 1008.1 |
| 20260506071548 | 68 | 0 | 0.0 | 3.5 | 0.00 | 0.00 | 0.00 | 52 | 1008.1 |
| 20260506071039 | 69 | 202 | 0.9 | 4.3 | 0.00 | 0.00 | 0.00 | 52 | 1008.1 |
| 20260506070536 | 69 | 153 | 0.9 | 4.3 | 0.00 | 0.00 | 0.00 | 53 | 1008.2 |
| 20260506062037 | 65 | 0 | 0.0 | 5.2 | 0.00 | 0.00 | 0.00 | 59 | 1008.4 |
| 20260506061550 | 65 | 286 | 0.9 | 3.5 | 0.00 | 0.00 | 0.00 | 60 | 1008.4 |
| 20260506061034 | 64 | 277 | 0.0 | 3.5 | 0.00 | 0.00 | 0.00 | 60 | 1008.5 |
| 20260506060611 | 64 | 327 | 0.0 | 3.5 | 0.00 | 0.00 | 0.00 | 61 | 1008.4 |
| 20260506051034 | 62 | 279 | 0.0 | 3.5 | 0.00 | 0.00 | 0.00 | 64 | 1008.4 |
| 20260506050535 | 62 | 288 | 0.0 | 4.3 | 0.00 | 0.00 | 0.00 | 65 | 1008.5 |
| 20260506050109 | 62 | 288 | 1.7 | 7.0 | 0.00 | 0.00 | 0.00 | 65 | 1008.5 |
| 20260506045034 | 62 | 318 | 1.7 | 6.1 | 0.00 | 0.00 | 0.00 | 65 | 1008.3 |
| 20260506044548 | 62 | 267 | 2.6 | 5.2 | 0.00 | 0.00 | 0.00 | 65 | 1008.3 |
| 20260506044036 | 62 | 234 | 1.7 | 6.1 | 0.00 | 0.00 | 0.00 | 66 | 1008.2 |
| 20260506043533 | 61 | 292 | 2.6 | 6.1 | 0.00 | 0.00 | 0.00 | 67 | 1008.2 |
| 20260506043049 | 61 | 299 | 2.6 | 6.1 | 0.00 | 0.00 | 0.00 | 68 | 1008.2 |
| 20260506042536 | 61 | 288 | 1.7 | 5.2 | 0.00 | 0.00 | 0.00 | 68 | 1008.1 |
| 20260506042037 | 61 | 269 | 1.7 | 5.2 | 0.00 | 0.00 | 0.00 | 69 | 1008.0 |
| 20260506041558 | 60 | 213 | 0.9 | 5.2 | 0.00 | 0.00 | 0.00 | 69 | 1008.1 |
| 20260506041034 | 60 | 223 | 0.9 | 2.6 | 0.00 | 0.00 | 0.00 | 70 | 1008.1 |
| 20260506040534 | 60 | 234 | 0.9 | 2.6 | 0.00 | 0.00 | 0.00 | 70 | 1008.0 |
| 20260506040055 | 60 | 234 | 0.9 | 2.6 | 0.00 | 0.00 | 0.00 | 70 | 1008.0 |
| 20260506035538 | 60 | 0 | 0.9 | 6.1 | 0.00 | 0.00 | 0.00 | 70 | 1007.9 |
| 20260506035034 | 61 | 331 | 1.7 | 6.1 | 0.00 | 0.00 | 0.00 | 70 | 1008.0 |
| 20260506034552 | 61 | 302 | 1.7 | 7.0 | 0.00 | 0.00 | 0.00 | 70 | 1007.9 |
| 20260506034037 | 61 | 301 | 2.6 | 7.0 | 0.00 | 0.00 | 0.00 | 70 | 1007.9 |
| 20260506033537 | 61 | 306 | 2.6 | 7.0 | 0.00 | 0.00 | 0.00 | 69 | 1007.9 |
| 20260506033047 | 61 | 265 | 2.6 | 5.2 | 0.00 | 0.00 | 0.00 | 69 | 1007.9 |
| 20260506032540 | 61 | 279 | 1.7 | 7.8 | 0.00 | 0.00 | 0.00 | 69 | 1007.9 |
| 20260506032036 | 61 | 296 | 1.7 | 7.8 | 0.00 | 0.00 | 0.00 | 69 | 1007.9 |
| 20260506031545 | 61 | 325 | 1.7 | 7.8 | 0.00 | 0.00 | 0.00 | 69 | 1007.9 |
| 20260506031036 | 61 | 290 | 2.6 | 7.8 | 0.00 | 0.00 | 0.00 | 69 | 1007.8 |
| 20260506030536 | 61 | 304 | 2.6 | 7.8 | 0.00 | 0.00 | 0.00 | 69 | 1007.8 |
| 20260506030045 | 62 | 321 | 3.5 | 7.8 | 0.00 | 0.00 | 0.00 | 69 | 1007.9 |
| 20260506025610 | 62 | 298 | 2.6 | 7.0 | 0.00 | 0.00 | 0.00 | 69 | 1007.9 |
| 20260506025036 | 62 | 327 | 1.7 | 7.8 | 0.00 | 0.00 | 0.00 | 69 | 1007.9 |
| 20260506024546 | 62 | 288 | 2.6 | 7.8 | 0.00 | 0.00 | 0.00 | 69 | 1007.9 |
| 20260506024036 | 62 | 331 | 2.6 | 8.7 | 0.00 | 0.00 | 0.00 | 69 | 1007.8 |
| 20260506023534 | 62 | 325 | 2.6 | 8.7 | 0.00 | 0.00 | 0.00 | 68 | 1007.8 |
| 20260506023106 | 62 | 303 | 1.7 | 6.1 | 0.00 | 0.00 | 0.00 | 68 | 1007.8 |
| 20260506022536 | 62 | 291 | 2.6 | 7.8 | 0.00 | 0.00 | 0.00 | 68 | 1007.8 |
| 20260506022036 | 62 | 324 | 1.7 | 7.8 | 0.00 | 0.00 | 0.00 | 68 | 1007.8 |
| 20260506021548 | 62 | 271 | 2.6 | 7.8 | 0.00 | 0.00 | 0.00 | 68 | 1007.7 |
| 20260506021035 | 62 | 298 | 2.6 | 7.0 | 0.00 | 0.00 | 0.00 | 68 | 1007.7 |
| 20260506020535 | 62 | 257 | 1.7 | 8.7 | 0.00 | 0.00 | 0.00 | 68 | 1007.6 |
| 20260506020053 | 62 | 281 | 3.5 | 8.7 | 0.00 | 0.00 | 0.00 | 67 | 1007.6 |
| 20260506015536 | 63 | 321 | 3.5 | 7.8 | 0.00 | 0.00 | 0.00 | 67 | 1007.5 |
| 20260506015037 | 63 | 329 | 2.6 | 11.3 | 0.00 | 0.00 | 0.00 | 66 | 1007.5 |
| 20260506014547 | 63 | 251 | 2.6 | 11.3 | 0.00 | 0.00 | 0.00 | 66 | 1007.4 |
| 20260506014035 | 63 | 340 | 5.2 | 9.6 | 0.00 | 0.00 | 0.00 | 66 | 1007.4 |
| 20260506013535 | 63 | 303 | 4.3 | 8.7 | 0.00 | 0.00 | 0.00 | 66 | 1007.3 |
| 20260506013056 | 63 | 286 | 2.6 | 7.0 | 0.00 | 0.00 | 0.00 | 65 | 1007.4 |
| 20260506012539 | 63 | 270 | 2.6 | 7.0 | 0.00 | 0.00 | 0.00 | 65 | 1007.3 |
| 20260506012037 | 63 | 270 | 2.6 | 10.4 | 0.00 | 0.00 | 0.00 | 64 | 1007.4 |
| 20260506011548 | 64 | 289 | 3.5 | 10.4 | 0.00 | 0.00 | 0.00 | 64 | 1007.4 |
| 20260506011035 | 64 | 271 | 4.3 | 10.4 | 0.00 | 0.00 | 0.00 | 64 | 1007.3 |
| 20260506010537 | 64 | 273 | 3.5 | 13.0 | 0.00 | 0.00 | 0.00 | 64 | 1007.2 |
| 20260506010050 | 64 | 246 | 4.3 | 13.0 | 0.00 | 0.00 | 0.00 | 64 | 1007.2 |
| 20260506005535 | 64 | 267 | 4.3 | 9.6 | 0.00 | 0.00 | 0.00 | 64 | 1007.2 |
| 20260506005037 | 63 | 273 | 4.3 | 8.7 | 0.00 | 0.00 | 0.00 | 65 | 1007.1 |
| 20260506004546 | 63 | 313 | 1.7 | 7.8 | 0.00 | 0.00 | 0.00 | 65 | 1007.1 |
| 20260506004036 | 62 | 335 | 2.6 | 7.8 | 0.00 | 0.00 | 0.00 | 65 | 1007.0 |
| 20260506003536 | 62 | 306 | 2.6 | 5.2 | 0.00 | 0.00 | 0.00 | 65 | 1007.0 |
| 20260506003050 | 61 | 274 | 2.6 | 5.2 | 0.00 | 0.00 | 0.00 | 66 | 1006.8 |
| 20260506002535 | 60 | 302 | 1.7 | 3.5 | 0.00 | 0.00 | 0.00 | 66 | 1006.7 |
| 20260506002035 | 60 | 279 | 0.0 | 1.7 | 0.00 | 0.00 | 0.00 | 65 | 1006.7 |
| 20260506001554 | 60 | 0 | 0.0 | 1.7 | 0.00 | 0.00 | 0.00 | 65 | 1006.6 |
| 20260506001036 | 60 | 0 | 0.0 | 0.0 | 0.00 | 0.00 | 0.00 | 65 | 1006.6 |
| 20260506000535 | 60 | 0 | 0.0 | 0.0 | 0.00 | 0.00 | 0.00 | 65 | 1006.7 |
| 20260506000054 | 59 | 0 | 0.0 | 0.0 | 0.00 | 0.00 | 0.00 | 66 | 1006.6 |
| 20260505235535 | 59 | 0 | 0.0 | 0.9 | 0.00 | 0.00 | 0.00 | 66 | 1006.4 |
| 20260505235037 | 60 | 0 | 0.0 | 0.9 | 0.00 | 0.00 | 0.00 | 65 | 1006.3 |
| 20260505234546 | 59 | 0 | 0.0 | 0.9 | 0.00 | 0.00 | 0.00 | 65 | 1006.4 |
| 20260505234035 | 60 | 0 | 0.0 | 0.0 | 0.00 | 0.00 | 0.00 | 65 | 1006.4 |
| 20260505233541 | 60 | 0 | 0.0 | 0.0 | 0.00 | 0.00 | 0.00 | 65 | 1006.2 |
| 20260505233056 | 60 | 0 | 0.0 | 0.0 | 0.00 | 0.00 | 0.00 | 64 | 1006.2 |
| 20260505232536 | 60 | 0 | 0.0 | 0.0 | 0.00 | 0.00 | 0.00 | 64 | 1006.1 |
| 20260505232036 | 59 | 0 | 0.0 | 0.0 | 0.00 | 0.00 | 0.00 | 65 | 1006.1 |
| 20260505231552 | 59 | 0 | 0.0 | 0.0 | 0.00 | 0.00 | 0.00 | 65 | 1006.0 |
| 20260505231036 | 59 | 0 | 0.0 | 0.0 | 0.00 | 0.00 | 0.00 | 64 | 1006.0 |
| 20260505230536 | 60 | 0 | 0.0 | 2.6 | 0.00 | 0.00 | 0.00 | 64 | 1005.9 |
| 20260505230112 | 60 | 0 | 0.0 | 2.6 | 0.00 | 0.00 | 0.00 | 64 | 1005.9 |
| 20260505225536 | 60 | 112 | 0.0 | 2.6 | 0.00 | 0.00 | 0.00 | 64 | 1005.9 |
| 20260505225035 | 60 | 119 | 0.0 | 1.7 | 0.00 | 0.00 | 0.00 | 64 | 1005.8 |
| 20260505224545 | 60 | 0 | 0.0 | 0.0 | 0.00 | 0.00 | 0.00 | 63 | 1005.7 |
| 20260505224036 | 60 | 0 | 0.0 | 0.0 | 0.00 | 0.00 | 0.00 | 62 | 1005.6 |
| 20260505223535 | 60 | 0 | 0.0 | 0.0 | 0.00 | 0.00 | 0.00 | 63 | 1005.6 |
| 20260505223047 | 60 | 0 | 0.0 | 0.0 | 0.00 | 0.00 | 0.00 | 63 | 1005.5 |